Location: Newark
(48.8833°N, 0.9236°W)
Time: 23:22:39
(UTC+00:00)

Transit 4A - Pass Details

Date: 30 November 2019
Orbit: 870 x 975 km, 66.8° (Epoch: 06 December)

Event Time Altitude Azimuth Distance (km) Brightness Sun altitude
Rises 18:36:07 0° 185° (S) 3,623 11.1 -23.2°
Reaches altitude 10° 18:38:51 10° 177° (S) 2,668 10.3 -23.7°
Enters shadow 18:42:50 31° 144° (SE) 1,577 8.8 -24.3°
